Simultaneous Nadir Overpasses (SNOs) Predictions

Prediction of SNOs between GOES-16 and METOP-B Satellite Orbit:

Table of predicted SNOs for the next 14.0 days since TLE Epoch: 2/9/2018
Index Date Time (GOES-16) GOES-16 Lat,Lon METOP-B Lat,Lon Distance(km) Time Diff (sec)
1 02/11/2018 14:27:57 -0.01, -75.22 -0.11, -74.83 44.13 80
2 02/13/2018 02:46:56 0.01, -75.19 -0.94, -79.42 482.29 80
3 02/14/2018 02:28:57 0.00, -75.20 0.18, -74.43 87.62 80
4 02/15/2018 14:47:49 -0.00, -75.25 0.82, -79.00 427.24 80
5 02/16/2018 14:24:30 -0.00, -75.26 -0.30, -74.00 143.00 80
6 02/18/2018 02:46:09 -0.00, -75.24 -0.75, -78.59 382.36 80
7 02/19/2018 02:25:29 -0.00, -75.25 0.37, -73.60 188.19 80
8 02/20/2018 14:44:22 0.00, -75.31 0.63, -78.17 325.76 80
9 02/21/2018 14:21:02 0.00, -75.32 -0.49, -73.18 244.94 80
10 02/23/2018 02:42:42 -0.00, -75.31 -0.55, -77.77 279.90 80




NCC Satellite Simultaneous Nadir Overpasses (SNOs) Prediction Service
